contact:dominique.lefevre@mio.osupytheas.fr, maurice.libes@osupytheas.fr, didier.mallarino@osupytheas.fr
Project:EMSO http://www.emso-fr.org/EMSO-France
Depth: 2436.0 m
Title:EMSO Ligure Ouest : Data MII capteur AQUADOPP
Date,Latitude,Longitude,X_East,Y_North,Z_Up,Amplitude_X,Amplitude_Y,Amplitude_Z,Batterie,SoundSpeed,Heading,Pitch,Roll,Pressure,TIS,Speed,Direction
, degrees North, degrees East, m.s-1, m.s-1,m.s-1, 1, 1, 1, Volt, m.s-1, degree, degree, degree, dbar, degree_C, m.s-1, degree
2021-06-01T00:04:03,42.805,6.029,0.009,-0.016,0.018,103.0,104.0,101.0,13.4,1505.2,324.7,-0.8,1.8,2470.464,13.29,0.018,150.6
2021-06-01T00:07:03,42.805,6.029,-0.013,-0.012,0.0,104.0,102.0,102.0,13.3,1505.2,328.4,-0.7,1.8,2470.449,13.29,0.017,227.3
2021-06-01T00:10:03,42.805,6.029,-0.049,-0.002,-0.017,103.0,102.0,100.0,13.3,1505.2,328.3,-0.8,1.8,2470.489,13.29,0.049,267.7
2021-06-01T00:13:03,42.805,6.029,-0.015,-0.006,-0.022,102.0,103.0,101.0,13.3,1505.2,328.1,-0.8,1.8,2470.476,13.29,0.016,248.2
2021-06-01T00:16:03,42.805,6.029,0.002,-0.008,-0.013,104.0,103.0,101.0,13.4,1505.2,324.9,-0.8,1.8,2470.463,13.29,0.008,166.0
2021-06-01T00:19:03,42.805,6.029,-0.024,-0.002,-0.012,101.0,100.0,103.0,13.4,1505.2,328.5,-0.8,1.8,2470.452,13.29,0.024,265.2
2021-06-01T00:22:03,42.805,6.029,-0.012,-0.01,-0.015,105.0,104.0,102.0,13.4,1505.2,327.1,-0.7,1.8,2470.458,13.29,0.015,230.2
2021-06-01T00:25:03,42.805,6.029,-0.02,-0.027,0.007,104.0,104.0,101.0,13.3,1505.2,328.3,-0.7,1.8,2470.485,13.29,0.033,216.5
2021-06-01T00:28:03,42.805,6.029,0.013,0.007,0.021,102.0,103.0,102.0,13.4,1505.2,328.1,-0.7,1.8,2470.489,13.29,0.014,61.7
2021-06-01T00:31:03,42.805,6.029,-0.012,-0.032,-0.024,103.0,101.0,100.0,13.4,1505.2,326.0,-0.8,1.8,2470.458,13.29,0.034,200.6
2021-06-01T00:34:03,42.805,6.029,0.015,-0.007,0.007,103.0,108.0,99.0,13.4,1505.2,328.0,-0.8,1.8,2470.442,13.29,0.016,115.0
2021-06-01T00:37:03,42.805,6.029,-0.018,0.004,0.032,102.0,103.0,101.0,13.4,1505.2,327.1,-0.7,1.8,2470.472,13.29,0.018,282.5
2021-06-01T00:40:03,42.805,6.029,-0.01,-0.014,0.023,104.0,100.0,100.0,13.4,1505.2,326.2,-0.7,1.8,2470.438,13.29,0.017,215.5
2021-06-01T00:43:03,42.805,6.029,-0.001,-0.023,-0.019,104.0,102.0,101.0,13.4,1505.2,328.0,-0.8,1.8,2470.45,13.29,0.023,182.5
2021-06-01T00:46:03,42.805,6.029,-0.006,-0.019,-0.011,104.0,103.0,100.0,13.3,1505.2,327.7,-0.8,1.8,2470.451,13.29,0.019,197.5
2021-06-01T00:49:03,42.805,6.029,-0.025,-0.017,0.015,104.0,102.0,100.0,13.3,1505.2,329.3,-0.7,1.8,2470.483,13.29,0.03,235.8
2021-06-01T00:52:03,42.805,6.029,-0.008,-0.031,-0.002,102.0,103.0,100.0,13.3,1505.2,327.3,-0.7,1.8,2470.493,13.29,0.032,194.5
2021-06-01T00:55:03,42.805,6.029,0.005,-0.027,-0.004,103.0,103.0,108.0,13.3,1505.2,328.1,-0.7,1.8,2470.452,13.29,0.027,169.5
2021-06-01T00:58:03,42.805,6.029,-0.019,-0.001,-0.005,103.0,100.0,100.0,13.4,1505.2,327.5,-0.7,1.8,2470.463,13.29,0.019,267.0
2021-06-01T01:04:03,42.805,6.029,0.0,-0.008,0.007,105.0,105.0,101.0,13.3,1505.2,327.1,-0.7,1.8,2470.498,13.29,0.008,180.0
2021-06-01T01:07:03,42.805,6.029,0.003,0.011,0.025,103.0,102.0,100.0,13.4,1505.2,328.3,-0.8,1.8,2470.472,13.29,0.011,15.3
2021-06-01T01:10:03,42.805,6.029,-0.008,-0.031,0.0,102.0,110.0,100.0,13.3,1505.2,325.5,-0.8,1.8,2470.466,13.29,0.032,194.5
2021-06-01T01:13:03,42.805,6.029,-0.009,0.004,-0.001,105.0,101.0,100.0,13.4,1505.2,328.1,-0.8,1.8,2470.445,13.29,0.009,294.0
2021-06-01T01:16:03,42.805,6.029,-0.003,-0.003,-0.004,101.0,102.0,102.0,13.4,1505.2,326.3,-0.8,1.8,2470.447,13.29,0.004,225.0
2021-06-01T01:19:03,42.805,6.029,-0.008,-0.012,-0.021,103.0,101.0,102.0,13.4,1505.2,327.1,-0.7,1.8,2470.438,13.29,0.014,213.7
2021-06-01T01:22:03,42.805,6.029,0.0,-0.034,-0.004,102.0,104.0,101.0,13.3,1505.2,328.2,-0.8,1.8,2470.458,13.29,0.034,180.0
2021-06-01T01:25:03,42.805,6.029,0.0,0.0,-0.024,103.0,102.0,101.0,13.3,1505.2,328.1,-0.8,1.8,2470.467,13.29,0.0,0.0
2021-06-01T01:28:03,42.805,6.029,0.003,-0.021,-0.014,102.0,103.0,101.0,13.4,1505.2,325.3,-0.7,1.8,2470.455,13.29,0.021,171.9
2021-06-01T01:31:03,42.805,6.029,-0.01,-0.009,0.01,104.0,103.0,100.0,13.3,1505.2,327.0,-0.8,1.8,2470.458,13.29,0.013,228.0
2021-06-01T01:34:03,42.805,6.029,0.007,-0.006,0.02,103.0,104.0,100.0,13.3,1505.2,326.7,-0.8,1.8,2470.44,13.29,0.009,130.6
2021-06-01T01:37:03,42.805,6.029,0.005,-0.017,0.006,103.0,104.0,101.0,13.4,1505.2,329.4,-0.7,1.8,2470.457,13.29,0.017,163.6
2021-06-01T01:40:03,42.805,6.029,0.015,-0.018,-0.007,104.0,105.0,100.0,13.4,1505.2,329.0,-0.8,1.8,2470.454,13.29,0.023,140.2
2021-06-01T01:43:03,42.805,6.029,-0.014,-0.022,0.002,103.0,104.0,101.0,13.4,1505.2,324.8,-0.7,1.8,2470.484,13.29,0.026,212.5
2021-06-01T01:46:03,42.805,6.029,-0.013,-0.004,0.021,103.0,102.0,101.0,13.4,1505.2,327.8,-0.7,1.8,2470.469,13.29,0.013,252.9
2021-06-01T01:49:03,42.805,6.029,-0.01,-0.009,0.027,103.0,103.0,100.0,13.3,1505.2,328.2,-0.8,1.8,2470.456,13.29,0.013,228.0
2021-06-01T01:52:03,42.805,6.029,-0.009,0.008,0.014,102.0,102.0,101.0,13.4,1505.2,327.0,-0.8,1.8,2470.401,13.29,0.012,311.6
2021-06-01T01:55:03,42.805,6.029,0.004,-0.035,0.003,104.0,102.0,101.0,13.3,1505.2,327.9,-0.7,1.8,2470.434,13.29,0.035,173.5
2021-06-01T01:58:03,42.805,6.029,-0.011,-0.011,0.022,105.0,101.0,102.0,13.4,1505.2,330.0,-0.8,1.9,2470.424,13.29,0.015,225.0
2021-06-01T02:04:03,42.805,6.029,-0.014,-0.01,0.019,106.0,102.0,102.0,13.4,1505.2,327.0,-0.8,1.8,2470.436,13.29,0.017,234.5
2021-06-01T02:07:03,42.805,6.029,-0.009,0.003,0.023,104.0,103.0,102.0,13.4,1505.2,329.6,-0.8,1.8,2470.421,13.29,0.009,288.4
2021-06-01T02:10:03,42.805,6.029,0.006,-0.015,-0.002,101.0,102.0,101.0,13.3,1505.2,324.0,-0.7,1.8,2470.464,13.29,0.016,158.2
2021-06-01T02:13:03,42.805,6.029,-0.008,0.012,0.012,103.0,105.0,101.0,13.4,1505.2,328.0,-0.7,1.8,2470.457,13.29,0.014,326.3
2021-06-01T02:16:03,42.805,6.029,0.005,0.001,0.009,102.0,105.0,101.0,13.4,1505.2,325.5,-0.7,1.8,2470.468,13.29,0.005,78.7
2021-06-01T02:19:03,42.805,6.029,0.031,-0.008,0.045,104.0,102.0,102.0,13.4,1505.2,329.9,-0.8,1.8,2470.429,13.29,0.032,104.5
2021-06-01T02:22:03,42.805,6.029,0.0,-0.003,0.0,101.0,103.0,101.0,13.4,1505.2,325.4,-0.7,1.8,2470.423,13.29,0.003,180.0
2021-06-01T02:25:03,42.805,6.029,-0.012,-0.021,-0.022,102.0,104.0,102.0,13.4,1505.2,327.1,-0.7,1.9,2470.462,13.29,0.024,209.7
2021-06-01T02:28:03,42.805,6.029,-0.016,-0.02,0.002,104.0,102.0,101.0,13.4,1505.2,326.1,-0.7,1.9,2470.447,13.29,0.025,218.7
2021-06-01T02:31:03,42.805,6.029,0.002,-0.016,-0.022,110.0,104.0,103.0,13.4,1505.2,328.3,-0.7,1.8,2470.403,13.29,0.016,172.9
2021-06-01T02:34:03,42.805,6.029,-0.01,-0.002,-0.019,107.0,102.0,102.0,13.3,1505.2,329.9,-0.8,1.8,2470.43,13.29,0.01,258.7
2021-06-01T02:37:03,42.805,6.029,-0.005,-0.016,0.0,101.0,102.0,101.0,13.3,1505.2,328.0,-0.7,1.8,2470.392,13.29,0.016,197.4
2021-06-01T02:40:03,42.805,6.029,-0.012,-0.019,-0.016,104.0,102.0,101.0,13.4,1505.2,328.1,-0.7,1.8,2470.417,13.29,0.022,212.3
2021-06-01T02:43:03,42.805,6.029,-0.015,-0.001,-0.012,103.0,102.0,101.0,13.4,1505.2,327.7,-0.8,1.8,2470.426,13.29,0.015,266.2
2021-06-01T02:46:03,42.805,6.029,-0.016,-0.014,0.022,103.0,103.0,102.0,13.4,1505.2,326.4,-0.7,1.8,2470.415,13.29,0.021,228.8
2021-06-01T02:49:03,42.805,6.029,0.0,-0.031,-0.016,104.0,106.0,103.0,13.4,1505.2,327.1,-0.8,1.8,2470.434,13.29,0.03,180.0
2021-06-01T02:52:03,42.805,6.029,-0.019,-0.013,-0.012,105.0,103.0,102.0,13.4,1505.2,328.1,-0.8,1.8,2470.369,13.29,0.023,235.6
2021-06-01T02:55:03,42.805,6.029,-0.024,-0.004,-0.025,105.0,102.0,102.0,13.4,1505.2,326.1,-0.8,1.8,2470.406,13.29,0.024,260.5
2021-06-01T02:58:03,42.805,6.029,-0.012,-0.032,0.002,103.0,104.0,99.0,13.4,1505.2,329.7,-0.7,1.8,2470.394,13.29,0.034,200.6
2021-06-01T03:04:03,42.805,6.029,-0.003,-0.008,0.025,104.0,104.0,100.0,13.3,1505.2,326.6,-0.7,1.8,2470.406,13.29,0.008,200.6
2021-06-01T03:07:03,42.805,6.029,-0.042,-0.005,-0.012,103.0,103.0,101.0,13.4,1505.2,327.7,-0.8,1.8,2470.384,13.29,0.042,263.2
2021-06-01T03:10:03,42.805,6.029,-0.009,-0.002,0.021,101.0,102.0,101.0,13.4,1505.2,327.7,-0.8,1.8,2470.372,13.29,0.009,257.5
2021-06-01T03:13:03,42.805,6.029,0.002,-0.007,0.007,105.0,104.0,100.0,13.3,1505.2,329.2,-0.7,1.8,2470.373,13.29,0.007,164.1
2021-06-01T03:16:03,42.805,6.029,-0.005,-0.015,0.002,102.0,101.0,101.0,13.4,1505.2,325.2,-0.7,1.8,2470.42,13.29,0.015,198.4
2021-06-01T03:19:03,42.805,6.029,-0.026,-0.023,0.016,103.0,104.0,100.0,13.4,1505.2,326.7,-0.8,1.9,2470.366,13.29,0.034,228.5
2021-06-01T03:22:03,42.805,6.029,-0.008,-0.014,0.024,103.0,107.0,102.0,13.4,1505.2,328.8,-0.8,1.8,2470.363,13.29,0.016,209.7
2021-06-01T03:25:03,42.805,6.029,-0.001,-0.01,0.0,103.0,103.0,100.0,13.4,1505.2,326.0,-0.8,1.8,2470.369,13.29,0.01,185.7
2021-06-01T03:28:03,42.805,6.029,-0.018,-0.003,0.011,104.0,102.0,100.0,13.4,1505.2,325.8,-0.7,1.8,2470.363,13.29,0.018,260.5
2021-06-01T03:31:03,42.805,6.029,-0.013,-0.007,0.005,102.0,102.0,101.0,13.4,1505.2,326.8,-0.8,1.8,2470.346,13.29,0.014,241.7
2021-06-01T03:34:03,42.805,6.029,-0.011,-0.008,-0.029,104.0,102.0,101.0,13.4,1505.2,330.0,-0.8,1.8,2470.384,13.29,0.013,234.0
2021-06-01T03:37:03,42.805,6.029,-0.007,-0.034,-0.025,101.0,103.0,101.0,13.4,1505.2,327.0,-0.8,1.8,2470.396,13.29,0.034,191.6
2021-06-01T03:40:03,42.805,6.029,-0.018,-0.008,-0.007,103.0,102.0,102.0,13.4,1505.2,329.9,-0.8,1.8,2470.344,13.29,0.019,246.0
2021-06-01T03:43:03,42.805,6.029,-0.006,-0.013,0.0,102.0,101.0,101.0,13.3,1505.2,324.4,-0.7,1.8,2470.365,13.29,0.014,204.8
2021-06-01T03:46:03,42.805,6.029,-0.031,-0.012,-0.001,102.0,101.0,100.0,13.3,1505.2,327.0,-0.7,1.8,2470.346,13.29,0.033,248.8
2021-06-01T03:49:03,42.805,6.029,-0.031,-0.007,-0.017,103.0,102.0,101.0,13.3,1505.2,326.3,-0.7,1.8,2470.325,13.29,0.031,257.3
2021-06-01T03:52:03,42.805,6.029,-0.01,0.004,-0.01,104.0,105.0,100.0,13.4,1505.2,327.8,-0.8,1.8,2470.376,13.29,0.01,291.8
2021-06-01T03:55:03,42.805,6.029,-0.017,-0.01,-0.008,101.0,102.0,102.0,13.3,1505.2,325.7,-0.8,1.8,2470.373,13.29,0.019,239.5
2021-06-01T03:58:03,42.805,6.029,-0.014,0.004,-0.026,102.0,101.0,102.0,13.4,1505.2,326.5,-0.8,1.8,2470.313,13.29,0.014,285.9
2021-06-01T04:04:03,42.805,6.029,-0.021,-0.018,0.012,104.0,102.0,103.0,13.4,1505.2,327.6,-0.8,1.9,2470.393,13.29,0.027,229.4
2021-06-01T04:07:03,42.805,6.029,-0.009,-0.012,-0.001,102.0,102.0,103.0,13.3,1505.2,328.3,-0.7,1.8,2470.383,13.29,0.015,216.9
2021-06-01T04:10:03,42.805,6.029,-0.029,-0.003,-0.027,103.0,101.0,100.0,13.4,1505.2,324.6,-0.8,1.8,2470.365,13.29,0.029,264.1
2021-06-01T04:13:03,42.805,6.029,-0.01,-0.01,-0.003,103.0,101.0,101.0,13.4,1505.2,326.6,-0.8,1.8,2470.384,13.29,0.014,225.0
2021-06-01T04:16:03,42.805,6.029,-0.029,0.004,0.006,103.0,102.0,101.0,13.3,1505.2,328.9,-0.8,1.8,2470.37,13.29,0.029,277.8
2021-06-01T04:19:03,42.805,6.029,-0.027,-0.011,0.001,102.0,102.0,102.0,13.3,1505.2,328.1,-0.8,1.9,2470.355,13.29,0.029,247.8
2021-06-01T04:22:03,42.805,6.029,0.017,-0.008,0.003,104.0,101.0,101.0,13.3,1505.2,326.6,-0.7,1.8,2470.419,13.29,0.018,115.2
2021-06-01T04:25:03,42.805,6.029,-0.037,-0.009,-0.019,102.0,103.0,101.0,13.4,1505.2,327.7,-0.8,1.8,2470.413,13.29,0.038,256.3
2021-06-01T04:28:03,42.805,6.029,-0.002,-0.011,-0.009,103.0,102.0,102.0,13.4,1505.2,328.2,-0.8,1.8,2470.372,13.29,0.011,190.3
2021-06-01T04:31:03,42.805,6.029,0.0,0.007,0.006,104.0,104.0,101.0,13.3,1505.2,327.9,-0.7,1.9,2470.363,13.29,0.007,0.0
2021-06-01T04:34:03,42.805,6.029,-0.014,-0.013,0.004,104.0,104.0,101.0,13.4,1505.2,326.1,-0.8,1.8,2470.417,13.29,0.019,227.1
2021-06-01T04:37:03,42.805,6.029,-0.007,-0.016,0.011,103.0,101.0,100.0,13.3,1505.2,324.6,-0.7,1.8,2470.375,13.29,0.017,203.6
2021-06-01T04:40:03,42.805,6.029,0.003,-0.013,0.009,104.0,103.0,101.0,13.4,1505.2,327.9,-0.8,1.9,2470.392,13.29,0.013,167.0
2021-06-01T04:43:03,42.805,6.029,-0.001,-0.019,-0.003,103.0,103.0,102.0,13.4,1505.2,327.2,-0.7,1.9,2470.364,13.29,0.019,183.0
2021-06-01T04:46:03,42.805,6.029,-0.014,-0.02,-0.003,103.0,103.0,102.0,13.3,1505.2,326.7,-0.8,1.8,2470.356,13.29,0.024,215.0
2021-06-01T04:49:03,42.805,6.029,-0.009,0.002,0.034,104.0,102.0,102.0,13.4,1505.2,328.3,-0.7,1.8,2470.369,13.29,0.009,282.5
2021-06-01T04:52:03,42.805,6.029,-0.005,-0.01,0.006,104.0,105.0,101.0,13.3,1505.2,325.0,-0.8,1.8,2470.324,13.29,0.011,206.6
2021-06-01T04:55:03,42.805,6.029,-0.008,-0.015,-0.002,103.0,103.0,102.0,13.4,1505.2,327.9,-0.7,1.8,2470.363,13.29,0.017,208.1
2021-06-01T04:58:03,42.805,6.029,-0.025,-0.004,0.013,103.0,101.0,103.0,13.3,1505.2,326.5,-0.8,1.8,2470.346,13.29,0.025,260.9
2021-06-01T05:04:03,42.805,6.029,-0.04,-0.004,0.015,103.0,104.0,101.0,13.4,1505.2,325.3,-0.8,1.8,2470.357,13.29,0.04,264.3
2021-06-01T05:07:03,42.805,6.029,-0.005,-0.011,-0.014,103.0,102.0,101.0,13.3,1505.2,326.1,-0.7,1.8,2470.369,13.29,0.012,204.4
2021-06-01T05:10:03,42.805,6.029,-0.031,0.0,0.014,102.0,103.0,100.0,13.4,1505.2,327.2,-0.8,1.9,2470.337,13.29,0.03,270.0
2021-06-01T05:13:03,42.805,6.029,-0.017,-0.018,0.026,102.0,102.0,102.0,13.4,1505.2,328.2,-0.7,1.8,2470.34,13.29,0.024,223.4
2021-06-01T05:16:03,42.805,6.029,-0.002,-0.033,-0.024,102.0,102.0,101.0,13.4,1505.2,326.5,-0.8,1.8,2470.309,13.29,0.033,183.5
2021-06-01T05:19:03,42.805,6.029,-0.007,-0.016,-0.013,102.0,102.0,102.0,13.3,1505.2,328.7,-0.7,1.9,2470.366,13.29,0.017,203.6
2021-06-01T05:22:03,42.805,6.029,-0.024,-0.005,0.0,103.0,103.0,103.0,13.4,1505.2,329.5,-0.8,1.8,2470.315,13.29,0.024,258.2
2021-06-01T05:25:03,42.805,6.029,-0.015,-0.026,-0.003,105.0,103.0,102.0,13.4,1505.2,325.0,-0.7,1.8,2470.387,13.29,0.03,210.0
2021-06-01T05:28:03,42.805,6.029,-0.001,-0.005,0.014,103.0,103.0,102.0,13.3,1505.2,326.1,-0.8,1.8,2470.349,13.29,0.005,191.3
2021-06-01T05:31:03,42.805,6.029,-0.017,-0.01,0.014,104.0,102.0,102.0,13.3,1505.2,328.9,-0.8,1.8,2470.321,13.29,0.019,239.5
2021-06-01T05:34:03,42.805,6.029,0.0,-0.021,0.027,105.0,104.0,103.0,13.4,1505.2,328.8,-0.8,1.8,2470.312,13.29,0.021,180.0
2021-06-01T05:37:03,42.805,6.029,0.0,-0.012,-0.004,102.0,102.0,100.0,13.4,1505.2,328.2,-0.8,1.9,2470.344,13.29,0.012,180.0
2021-06-01T05:40:03,42.805,6.029,-0.023,-0.018,0.007,102.0,100.0,101.0,13.4,1505.2,329.9,-0.7,1.9,2470.295,13.29,0.029,232.0
2021-06-01T05:43:03,42.805,6.029,-0.016,-0.001,-0.016,101.0,104.0,101.0,13.4,1505.2,326.4,-0.8,1.8,2470.343,13.29,0.016,266.4
2021-06-01T05:46:03,42.805,6.029,-0.016,-0.008,0.015,101.0,102.0,100.0,13.4,1505.2,325.6,-0.7,1.8,2470.374,13.29,0.017,243.4
2021-06-01T05:49:03,42.805,6.029,-0.022,0.004,-0.016,102.0,103.0,101.0,13.4,1505.2,329.7,-0.8,1.8,2470.342,13.29,0.022,280.3
2021-06-01T05:52:03,42.805,6.029,-0.011,0.0,0.021,103.0,101.0,99.0,13.4,1505.2,328.0,-0.7,1.8,2470.274,13.29,0.011,270.0
2021-06-01T05:55:03,42.805,6.029,-0.015,-0.016,-0.004,103.0,102.0,102.0,13.3,1505.2,329.0,-0.8,1.8,2470.301,13.29,0.021,223.1
2021-06-01T05:58:03,42.805,6.029,-0.001,0.001,0.031,103.0,102.0,101.0,13.4,1505.2,326.6,-0.7,1.8,2470.333,13.29,0.001,315.0
2021-06-01T06:04:03,42.805,6.029,-0.005,-0.013,0.004,102.0,103.0,101.0,13.4,1505.2,327.9,-0.8,1.8,2470.373,13.29,0.013,201.0
2021-06-01T06:07:03,42.805,6.029,-0.005,-0.016,0.002,103.0,104.0,101.0,13.3,1505.2,329.4,-0.8,1.8,2470.299,13.29,0.016,197.4
2021-06-01T06:10:03,42.805,6.029,-0.016,0.007,0.036,102.0,102.0,101.0,13.3,1505.2,326.0,-0.8,1.8,2470.29,13.29,0.017,293.6
2021-06-01T06:13:03,42.805,6.029,-0.027,-0.02,0.021,105.0,102.0,100.0,13.4,1505.2,329.6,-0.7,1.8,2470.31,13.29,0.033,233.5
2021-06-01T06:16:03,42.805,6.029,-0.023,-0.009,0.012,102.0,103.0,102.0,13.3,1505.2,325.1,-0.7,1.8,2470.272,13.29,0.024,248.6
2021-06-01T06:19:03,42.805,6.029,-0.013,-0.002,0.015,102.0,103.0,102.0,13.4,1505.2,327.0,-0.8,1.8,2470.312,13.29,0.013,261.3
2021-06-01T06:22:03,42.805,6.029,-0.038,-0.012,-0.004,104.0,102.0,102.0,13.4,1505.2,326.1,-0.8,1.8,2470.31,13.29,0.039,252.5
2021-06-01T06:25:03,42.805,6.029,-0.008,-0.019,0.009,102.0,104.0,101.0,13.4,1505.2,326.4,-0.8,1.8,2470.349,13.29,0.02,202.8
2021-06-01T06:28:03,42.805,6.029,-0.014,-0.014,0.021,103.0,103.0,102.0,13.3,1505.2,327.9,-0.7,1.8,2470.311,13.29,0.019,225.0
2021-06-01T06:31:03,42.805,6.029,-0.02,-0.01,-0.001,103.0,104.0,101.0,13.3,1505.2,326.4,-0.7,1.8,2470.319,13.29,0.022,243.4
2021-06-01T06:34:03,42.805,6.029,-0.012,-0.009,0.009,103.0,103.0,102.0,13.3,1505.2,328.4,-0.8,1.8,2470.326,13.29,0.015,233.1
2021-06-01T06:37:03,42.805,6.029,-0.004,0.004,0.011,104.0,103.0,102.0,13.4,1505.2,328.3,-0.8,1.8,2470.32,13.29,0.005,315.0
2021-06-01T06:40:03,42.805,6.029,-0.01,-0.012,0.004,100.0,102.0,101.0,13.4,1505.2,329.0,-0.8,1.8,2470.331,13.29,0.015,219.8
2021-06-01T06:43:03,42.805,6.029,0.004,0.001,0.014,103.0,102.0,101.0,13.3,1505.2,328.1,-0.7,1.8,2470.283,13.29,0.004,76.0
2021-06-01T06:46:03,42.805,6.029,0.004,-0.008,0.02,102.0,103.0,100.0,13.4,1505.2,329.1,-0.7,1.8,2470.303,13.29,0.008,153.4
2021-06-01T06:49:03,42.805,6.029,-0.014,-0.014,-0.003,102.0,101.0,101.0,13.4,1505.2,325.7,-0.7,1.8,2470.298,13.29,0.019,225.0
2021-06-01T06:52:03,42.805,6.029,-0.002,-0.007,0.023,103.0,102.0,100.0,13.3,1505.2,328.0,-0.8,1.8,2470.282,13.29,0.007,195.9
2021-06-01T06:55:03,42.805,6.029,-0.013,0.011,0.001,103.0,102.0,102.0,13.4,1505.2,329.1,-0.8,1.8,2470.293,13.29,0.017,310.2
2021-06-01T06:58:03,42.805,6.029,-0.022,0.011,0.014,103.0,103.0,100.0,13.3,1505.2,325.4,-0.8,1.8,2470.325,13.29,0.024,296.6
2021-06-01T07:04:03,42.805,6.029,0.004,-0.015,0.006,103.0,102.0,101.0,13.3,1505.2,326.0,-0.8,1.8,2470.331,13.28,0.015,165.1
2021-06-01T07:07:03,42.805,6.029,-0.023,0.014,0.029,104.0,104.0,101.0,13.3,1505.2,324.5,-0.8,1.8,2470.354,13.29,0.026,301.3
2021-06-01T07:10:03,42.805,6.029,-0.004,-0.003,0.045,102.0,103.0,101.0,13.4,1505.2,325.4,-0.7,1.8,2470.319,13.29,0.005,233.1
2021-06-01T07:13:03,42.805,6.029,-0.023,-0.01,-0.017,101.0,103.0,101.0,13.4,1505.2,325.8,-0.8,1.8,2470.35,13.29,0.025,246.5
2021-06-01T07:16:03,42.805,6.029,-0.012,-0.022,0.029,104.0,102.0,101.0,13.4,1505.2,326.6,-0.7,1.8,2470.324,13.29,0.025,208.6
2021-06-01T07:19:03,42.805,6.029,-0.013,-0.013,-0.002,102.0,102.0,102.0,13.3,1505.2,329.5,-0.8,1.8,2470.341,13.29,0.018,225.0
2021-06-01T07:22:03,42.805,6.029,-0.007,0.007,-0.006,105.0,102.0,99.0,13.4,1505.2,324.9,-0.8,1.8,2470.333,13.29,0.009,315.0
2021-06-01T07:25:03,42.805,6.029,-0.016,-0.011,-0.004,104.0,102.0,101.0,13.3,1505.2,328.9,-0.8,1.8,2470.311,13.29,0.019,235.5
2021-06-01T07:28:03,42.805,6.029,-0.024,-0.01,0.011,101.0,103.0,100.0,13.3,1505.2,326.8,-0.7,1.8,2470.343,13.29,0.026,247.4
2021-06-01T07:31:03,42.805,6.029,0.0,-0.009,0.0,102.0,103.0,102.0,13.4,1505.2,326.0,-0.7,1.8,2470.35,13.29,0.009,180.0
2021-06-01T07:34:03,42.805,6.029,-0.024,0.006,0.015,104.0,101.0,102.0,13.4,1505.2,326.6,-0.7,1.8,2470.332,13.29,0.024,284.0
2021-06-01T07:37:03,42.805,6.029,-0.014,-0.01,-0.018,102.0,103.0,101.0,13.4,1505.2,325.8,-0.8,1.8,2470.295,13.29,0.017,234.5
2021-06-01T07:40:03,42.805,6.029,-0.011,-0.021,-0.011,103.0,103.0,101.0,13.4,1505.2,327.4,-0.8,1.8,2470.336,13.29,0.023,207.6
2021-06-01T07:43:03,42.805,6.029,-0.007,0.0,0.0,103.0,102.0,101.0,13.4,1505.2,325.0,-0.8,1.8,2470.355,13.29,0.007,270.0
2021-06-01T07:46:03,42.805,6.029,0.002,0.006,0.011,104.0,104.0,100.0,13.4,1505.2,329.8,-0.8,1.8,2470.337,13.29,0.006,18.4
2021-06-01T07:49:03,42.805,6.029,-0.013,0.005,-0.003,104.0,104.0,100.0,13.4,1505.2,324.4,-0.8,1.8,2470.351,13.29,0.013,291.0
2021-06-01T07:52:03,42.805,6.029,0.001,0.005,0.004,102.0,102.0,102.0,13.4,1505.2,327.5,-0.7,1.8,2470.309,13.29,0.005,11.3
2021-06-01T07:55:03,42.805,6.029,-0.006,-0.005,0.006,104.0,104.0,101.0,13.4,1505.2,325.1,-0.7,1.9,2470.34,13.29,0.007,230.2
2021-06-01T07:58:03,42.805,6.029,0.001,-0.019,-0.007,103.0,104.0,102.0,13.4,1505.2,326.9,-0.7,1.8,2470.345,13.29,0.019,177.0
2021-06-01T08:04:03,42.805,6.029,-0.004,-0.007,0.029,103.0,103.0,101.0,13.4,1505.2,328.3,-0.7,1.8,2470.358,13.29,0.008,209.7
2021-06-01T08:07:03,42.805,6.029,-0.016,-0.007,0.017,102.0,102.0,101.0,13.4,1505.2,326.5,-0.7,1.8,2470.351,13.29,0.017,246.4
2021-06-01T08:10:03,42.805,6.029,-0.007,0.009,0.037,104.0,102.0,101.0,13.4,1505.2,328.8,-0.8,1.8,2470.301,13.29,0.011,322.1
2021-06-01T08:13:03,42.805,6.029,0.019,-0.01,0.04,103.0,103.0,100.0,13.4,1505.2,326.3,-0.7,1.8,2470.283,13.29,0.021,117.8
2021-06-01T08:16:03,42.805,6.029,-0.03,0.007,-0.003,103.0,102.0,102.0,13.4,1505.2,327.6,-0.7,1.8,2470.286,13.29,0.03,283.1
2021-06-01T08:19:03,42.805,6.029,-0.03,-0.004,0.015,103.0,102.0,102.0,13.4,1505.2,330.1,-0.8,1.8,2470.304,13.29,0.03,262.4
2021-06-01T08:22:03,42.805,6.029,0.008,0.001,0.023,102.0,103.0,101.0,13.3,1505.2,324.0,-0.7,1.8,2470.335,13.29,0.008,82.9
2021-06-01T08:25:03,42.805,6.029,-0.009,0.0,0.021,102.0,102.0,101.0,13.4,1505.2,325.9,-0.8,1.8,2470.299,13.29,0.009,270.0
2021-06-01T08:28:03,42.805,6.029,-0.006,0.002,-0.019,103.0,101.0,101.0,13.4,1505.2,328.7,-0.7,1.8,2470.292,13.29,0.006,288.4
2021-06-01T08:31:03,42.805,6.029,-0.03,0.006,0.032,103.0,102.0,101.0,13.3,1505.2,327.4,-0.7,1.8,2470.348,13.29,0.03,281.3
2021-06-01T08:34:03,42.805,6.029,-0.001,-0.013,0.021,102.0,102.0,99.0,13.4,1505.2,325.3,-0.8,1.8,2470.296,13.29,0.013,184.4
2021-06-01T08:37:03,42.805,6.029,0.01,-0.001,0.006,102.0,101.0,100.0,13.3,1505.2,327.1,-0.7,1.9,2470.322,13.29,0.01,95.7
2021-06-01T08:40:03,42.805,6.029,0.013,-0.014,0.0,101.0,101.0,100.0,13.3,1505.2,329.4,-0.8,1.9,2470.312,13.29,0.019,137.1
2021-06-01T08:43:03,42.805,6.029,-0.008,0.009,0.021,101.0,102.0,100.0,13.3,1505.2,327.8,-0.7,1.8,2470.321,13.29,0.012,318.4
2021-06-01T08:46:03,42.805,6.029,0.009,-0.008,0.045,102.0,101.0,101.0,13.3,1505.2,326.7,-0.7,1.8,2470.33,13.29,0.012,131.6
2021-06-01T08:49:03,42.805,6.029,-0.017,-0.003,0.025,104.0,100.0,100.0,13.4,1505.2,329.3,-0.8,1.8,2470.264,13.29,0.017,260.0
2021-06-01T08:52:03,42.805,6.029,0.003,-0.001,0.005,103.0,103.0,100.0,13.4,1505.2,325.7,-0.7,1.8,2470.326,13.29,0.003,108.4
2021-06-01T08:55:03,42.805,6.029,0.011,-0.001,0.032,101.0,102.0,101.0,13.4,1505.2,324.5,-0.8,1.8,2470.332,13.29,0.011,95.2
2021-06-01T08:58:03,42.805,6.029,-0.002,0.005,0.027,101.0,104.0,102.0,13.4,1505.2,325.7,-0.7,1.8,2470.359,13.29,0.005,338.2
2021-06-01T09:04:03,42.805,6.029,-0.021,0.001,-0.006,103.0,104.0,100.0,13.4,1505.2,328.7,-0.7,1.8,2470.397,13.29,0.021,272.7
2021-06-01T09:07:03,42.805,6.029,-0.001,0.017,0.035,103.0,101.0,99.0,13.4,1505.2,329.2,-0.8,1.9,2470.4,13.29,0.017,356.6
2021-06-01T09:10:03,42.805,6.029,-0.005,-0.005,0.006,102.0,100.0,102.0,13.4,1505.2,327.1,-0.7,1.8,2470.343,13.29,0.007,225.0
2021-06-01T09:13:03,42.805,6.029,-0.015,0.002,0.013,100.0,102.0,100.0,13.4,1505.2,328.8,-0.8,1.9,2470.372,13.29,0.015,277.6
2021-06-01T09:16:03,42.805,6.029,-0.004,-0.003,0.0,101.0,101.0,101.0,13.3,1505.2,329.5,-0.7,1.8,2470.384,13.29,0.005,233.1
2021-06-01T09:19:03,42.805,6.029,-0.002,0.0,0.018,102.0,103.0,100.0,13.4,1505.2,328.1,-0.7,1.9,2470.342,13.29,0.002,270.0
2021-06-01T09:22:03,42.805,6.029,0.001,0.0,0.014,103.0,101.0,100.0,13.3,1505.2,325.0,-0.7,1.8,2470.351,13.29,0.001,90.0
2021-06-01T09:25:03,42.805,6.029,-0.017,-0.017,0.017,101.0,103.0,100.0,13.3,1505.2,329.3,-0.8,1.9,2470.404,13.29,0.024,225.0
2021-06-01T09:28:03,42.805,6.029,-0.005,-0.043,-0.021,104.0,101.0,100.0,13.4,1505.2,324.9,-0.7,1.8,2470.344,13.29,0.043,186.6
2021-06-01T09:31:03,42.805,6.029,0.005,-0.025,-0.001,101.0,103.0,101.0,13.4,1505.2,328.3,-0.8,1.8,2470.381,13.29,0.025,168.7
2021-06-01T09:34:03,42.805,6.029,-0.006,0.0,-0.007,101.0,102.0,101.0,13.3,1505.2,328.1,-0.7,1.8,2470.392,13.29,0.006,270.0
2021-06-01T09:37:03,42.805,6.029,-0.003,-0.009,0.0,103.0,102.0,100.0,13.4,1505.2,327.2,-0.7,1.8,2470.36,13.29,0.009,198.4
2021-06-01T09:40:03,42.805,6.029,0.01,-0.015,0.01,102.0,101.0,101.0,13.4,1505.2,326.6,-0.7,1.8,2470.359,13.29,0.018,146.3
2021-06-01T09:43:03,42.805,6.029,-0.012,0.003,0.001,101.0,103.0,102.0,13.4,1505.2,325.3,-0.8,1.8,2470.357,13.29,0.012,284.0
2021-06-01T09:46:03,42.805,6.029,0.014,-0.004,0.009,102.0,102.0,102.0,13.3,1505.2,326.5,-0.7,1.9,2470.354,13.29,0.014,105.9
2021-06-01T09:49:03,42.805,6.029,0.016,0.007,0.011,102.0,102.0,101.0,13.4,1505.2,325.2,-0.8,1.8,2470.36,13.29,0.017,66.4
2021-06-01T09:52:03,42.805,6.029,-0.002,-0.005,-0.003,103.0,102.0,100.0,13.3,1505.2,328.0,-0.8,1.8,2470.345,13.29,0.005,201.8
2021-06-01T09:55:03,42.805,6.029,-0.017,-0.003,0.011,104.0,102.0,101.0,13.4,1505.2,327.3,-0.8,1.8,2470.35,13.29,0.017,260.0